Temp
12 13 14 14 12 12 11 11 10 10 10 11 12 13 15 17 18 17 16 25 26 25 25 25 24 25 26 25 24 24 23 23 23 23 25 26 28 28 28 27 27 27 25 23 21
15 15 16 15 15 14 14 13 12 11 11 11 11 13 16 17 16 15 26 25 25 25 25 24 24 25 24 25 24 24 23 24 24 24 23 25 28 27 27 27 26 25 25 23 21
16 17 16 16 17 16 16 16 14 13 12 12 12 13 16 15 15 21 26 26 25 25 25 25 26 26 25 26 27 25 26 26 23 25 24 24 27 28 27 26 26 24 24 23 22
16 17 17 17 18 18 17 17 16 16 15 14 14 15 15 14 24 26 26 26 25 24 25 25 25 25 25 26 27 26 28 25 25 25 25 25 26 26 27 27 27 25 25 24 23
16 17 17 17 18 18 18 18 18 17 17 16 16 16 15 16 19 26 26 26 24 24 24 24 24 25 26 27 26 26 27 25 24 25 25 24 24 23 25 27 27 26 25 24 24
16 17 17 17 18 18 18 18 19 18 17 17 16 15 14 20 25 26 26 25 24 24 24 24 24 26 26 26 27 26 24 24 23 22 23 23 21 23 26 26 27 26 25 24 24
16 17 17 18 18 18 18 18 19 18 17 18 16 13 14 20 25 25 25 24 24 25 22 25 25 25 25 26 25 25 24 23 23 23 22 24 22 22 24 26 26 26 26 25 24
17 17 17 18 18 18 19 18 19 18 18 17 16 14 16 25 25 25 24 24 24 24 25 26 27 26 26 25 23 25 25 24 23 23 23 23 23 23 23 27 27 26 26 25 25
17 17 18 18 18 19 20 20 19 17 17 16 15 15 20 25 24 27 26 25 24 23 25 26 26 25 26 24 22 21 23 23 23 22 22 23 23 21 23 27 27 27 27 26 25
17 17 18 19 19 19 20 20 18 17 16 15 15 17 23 26 27 27 27 26 25 23 25 25 22 22 22 21 22 23 23 24 22 22 21 23 22 22 21 23 26 27 26 26 25
17 18 19 19 20 20 21 19 17 18 16 21 22 23 24 27 28 28 27 26 27 26 24 25 22 23 24 24 25 24 24 23 22 21 21 22 22 22 20 21 23 23 26 25 25
17 18 19 20 20 20 19 18 22 23 20 20 21 21 24 25 26 28 28 26 25 24 24 22 23 24 25 26 27 25 23 23 23 21 21 21 22 21 22 22 22 23 25 26 25
18 18 19 20 21 20 18 21 23 22 19 22 22 23 25 26 27 27 27 26 25 24 24 23 25 26 27 27 26 25 24 23 23 22 22 21 21 21 21 22 22 23 23 26 25
17 18 20 21 19 19 20 23 23 22 18 23 26 27 27 27 27 28 27 28 27 25 24 24 25 27 26 27 26 24 26 25 24 22 23 22 22 21 20 21 22 22 22 25 24
18 18 20 21 18 18 24 23 23 22 21 27 27 28 26 26 28 28 28 27 26 26 25 25 27 26 26 27 26 25 25 24 24 22 23 22 22 23 21 21 22 22 22 23 25
19 19 20 19 18 24 24 25 23 20 24 27 28 27 27 27 27 28 28 28 27 26 25 25 27 26 26 28 27 25 22 22 22 22 21 23 22 23 21 22 23 23 24 23 24
21 21 21 20 21 24 24 21 20 21 25 26 27 27 26 26 27 26 27 26 24 25 25 26 27 25 25 23 24 23 22 21 22 22 21 21 22 23 24 23 24 23 24 23 24
21 24 24 25 25 24 23 20 22 25 25 27 26 27 26 27 27 27 26 25 26 25 24 25 26 24 26 24 23 22 23 23 23 23 23 22 23 23 25 26 25 25 25 23 23
21 22 23 27 26 23 18 19 21 24 26 26 26 25 25 26 27 25 26 25 26 24 24 24 26 28 27 26 24 24 24 24 21 21 22 22 23 24 24 25 24 25 25 23 23
21 20 22 24 24 23 18 20 21 23 27 26 26 26 25 24 25 24 24 25 26 26 24 25 26 27 28 27 26 25 24 23 21 23 23 23 22 23 24 23 23 24 24 24 23
19 19 24 24 25 18 19 19 23 24 27 26 25 25 25 26 25 24 24 26 26 26 24 24 23 26 27 27 25 26 25 21 21 21 22 24 23 22 24 23 22 23 24 24 24
15 20 23 23 20 14 19 20 24 27 26 27 26 26 26 25 25 25 25 25 27 25 25 24 21 23 27 26 26 27 27 23 22 25 21 23 25 23 23 22 23 23 24 25 25
12 13 22 22 20 18 19 23 25 27 27 27 26 26 24 25 25 24 25 27 27 26 26 25 20 21 21 22 25 24 23 22 18 18 22 24 25 21 23 23 23 23 24 24 24
12 18 17 17 17 22 22 21 25 27 27 26 25 25 24 22 21 25 24 27 26 26 23 21 20 23 20 23 22 23 22 21 20 20 20 21 20 20 20 21 21 23 24 24 24
11 17 18 19 20 20 20 22 26 26 25 24 24 23 24 23 22 22 23 23 25 23 23 21 21 23 23 23 23 23 22 22 21 21 21 20 20 19 20 20 20 20 22 23 23
14 16 15 16 17 20 20 24 25 25 26 25 23 23 22 23 24 24 24 24 24 23 22 18 20 23 23 23 22 21 22 22 22 21 21 20 20 18 18 20 19 19 20 21 22
14 15 15 16 18 20 21 22 25 25 25 25 23 22 23 25 23 23 22 20 21 23 21 20 18 19 22 21 22 21 20 21 21 21 20 20 20 19 20 19 18 19 19 19 19
Height
798 795 793 791 790 788 786 785 783 781 779 778 776 775 773 771 770 770 768 761 761 764 766 768 769 771 774 777 777 774 798 808 805 804 797 782 782 777 776 786 786 785 793 802 810
797 795 793 791 789 788 786 783 782 780 778 776 775 774 772 771 769 765 756 757 761 763 765 768 770 770 777 778 778 784 801 797 790 790 796 788 780 782 788 792 794 794 798 805 812
798 796 793 791 789 787 785 783 781 779 777 775 774 773 772 771 770 755 751 754 759 762 765 766 769 770 778 775 773 779 787 778 787 787 789 787 782 780 790 799 792 798 801 808 814
799 797 794 792 790 787 785 782 780 778 776 774 773 773 772 772 772 752 751 752 757 761 764 766 769 775 780 781 769 782 768 776 777 783 788 791 784 789 789 791 787 792 797 806 812
799 797 794 792 790 787 784 782 779 777 775 774 773 772 773 773 763 752 751 751 757 761 763 765 771 774 780 773 771 777 773 777 778 781 787 787 793 798 795 788 791 796 800 803 810
799 797 794 792 789 786 784 781 778 776 774 773 773 773 774 774 754 753 753 755 757 760 762 766 769 768 774 774 773 771 778 784 786 791 790 795 803 798 789 789 792 798 801 805 808
798 796 793 791 788 785 782 779 776 774 773 773 773 773 774 765 754 754 756 757 757 758 763 765 767 771 772 775 770 774 789 788 793 795 798 792 808 805 792 791 793 797 802 805 808
798 795 792 789 786 783 780 777 774 772 772 772 773 773 770 754 754 753 755 757 757 761 764 765 767 769 772 770 779 784 786 805 801 796 798 798 812 801 797 787 795 797 802 805 807
797 794 791 788 784 781 777 773 770 771 771 772 774 774 766 752 751 748 752 754 757 762 765 765 766 772 772 788 804 802 811 806 809 802 801 801 810 804 794 787 792 794 799 804 808
796 793 789 786 782 778 775 771 770 771 772 773 774 776 754 753 747 747 749 753 757 761 765 767 775 786 791 802 822 809 809 805 814 808 808 808 813 806 801 798 796 796 797 802 808
795 791 788 784 781 777 773 772 775 775 772 765 762 762 754 748 747 747 748 753 756 761 778 771 789 797 786 787 786 791 797 806 810 808 810 812 811 806 808 807 801 801 798 801 804
793 789 785 781 778 776 774 774 774 777 777 756 758 758 751 750 754 746 748 757 763 778 772 785 793 776 774 775 780 789 801 810 808 810 813 816 815 808 808 807 801 803 798 797 802
792 787 782 778 776 774 774 773 773 773 781 762 754 753 748 749 752 750 748 754 764 775 777 790 778 767 772 775 785 792 800 803 809 812 811 815 821 817 810 806 802 799 798 794 797
789 784 779 776 777 774 772 772 771 769 797 775 758 748 745 744 755 741 744 752 761 775 776 780 767 771 778 780 780 804 781 791 797 812 825 814 830 814 811 807 804 801 798 794 797
787 781 777 775 774 774 771 769 767 768 819 761 754 741 743 754 749 746 743 751 767 770 775 782 770 776 781 775 772 790 782 793 798 813 815 821 828 805 807 811 801 798 798 795 793
783 778 775 774 773 770 768 766 767 801 806 767 751 754 757 752 751 747 750 748 751 765 769 771 755 762 765 759 762 775 795 802 807 813 837 814 820 807 807 796 795 792 792 794 791
779 774 772 773 771 769 768 766 801 814 770 776 767 758 762 763 758 758 763 767 779 786 784 769 761 760 759 778 776 783 803 830 831 836 838 813 819 799 779 777 778 787 786 790 790
776 772 770 769 768 769 769 784 809 785 780 761 762 762 769 760 761 760 767 779 764 771 784 787 790 767 753 764 776 787 793 812 835 834 819 811 813 786 755 756 758 766 772 785 788
774 771 769 766 766 769 779 810 802 783 769 769 766 777 778 766 763 769 772 777 765 766 784 785 779 748 750 751 759 783 796 781 812 817 823 809 788 764 754 757 762 761 766 776 784
772 770 768 766 767 770 792 802 791 773 761 766 781 774 784 779 776 776 780 767 763 756 758 768 781 756 749 748 755 764 766 801 807 825 830 809 803 791 765 768 765 760 760 764 776
773 775 766 767 769 782 803 801 781 762 758 769 776 778 778 775 773 780 782 766 756 757 758 766 775 772 755 763 771 771 779 790 795 809 820 815 801 764 758 758 760 758 757 759 766
778 786 768 768 787 801 799 787 770 764 757 762 764 769 774 773 778 776 779 773 753 756 768 764 785 790 770 759 753 754 767 781 804 799 809 799 791 761 753 752 752 756 757 757 761
792 788 772 772 798 799 787 776 768 765 763 764 769 766 769 775 784 779 774 757 752 759 765 763 796 807 801 786 763 776 777 779 793 802 803 804 790 768 759 759 757 758 760 763 763
792 792 778 775 781 783 787 783 771 756 761 764 770 766 774 786 783 780 779 763 757 759 761 765 794 789 816 798 788 791 785 783 790 808 810 807 800 784 776 770 767 763 762 765 768
794 791 786 792 784 781 783 777 769 771 762 766 774 775 778 788 789 789 779 775 763 763 766 775 798 787 787 785 782 790 790 787 793 794 803 803 800 794 784 779 773 768 761 762 767
795 793 788 790 785 782 784 774 770 767 766 771 780 776 778 787 784 788 781 779 779 772 776 785 802 789 795 790 788 797 791 788 790 793 793 798 799 793 786 778 773 770 767 765 763
791 790 791 788 786 784 782 774 767 762 763 762 770 776 780 774 772 772 772 778 776 777 785 791 801 808 806 798 795 809 803 796 796 794 795 804 797 791 785 781 780 777 774 775 775
Wind_Speed
13 13 12 11 12 11 11 11 11 11 11 11 12 12 12 11 11 5 7 7 7 8 6 3 4 3 3 2 3 3 3 3 2 2 1 1 6 7 7 12 5 0 9 14 25
15 14 13 13 13 12 12 12 11 11 11 11 11 10 9 11 10 11 12 11 10 13 6 2 4 7 2 3 4 4 3 7 5 2 2 4 1 8 7 11 11 12 16 28 30
16 16 15 15 15 15 14 13 12 12 11 11 10 9 7 8 3 7 2 19 13 10 5 7 1 3 2 2 3 6 2 6 12 7 8 4 4 9 18 8 17 19 21 22 27
16 16 16 16 16 16 15 15 15 13 12 10 8 7 5 2 3 1 7 8 21 13 6 6 4 4 3 4 4 4 2 8 8 10 5 5 1 6 3 4 16 19 23 21 16
15 15 16 17 17 17 17 16 15 13 10 9 6 5 2 2 7 4 7 12 19 14 8 4 3 3 2 2 4 5 3 6 3 10 6 7 7 4 3 1 13 19 20 18 15
15 15 16 17 17 17 18 18 16 12 9 7 3 3 1 3 4 2 2 19 16 16 8 6 5 3 2 4 3 3 7 8 9 6 4 8 5 7 4 6 19 19 19 15 14
15 15 16 17 18 19 18 19 17 10 6 5 2 2 1 8 6 3 5 10 15 18 5 7 2 4 3 2 3 7 8 8 9 3 3 9 5 5 10 7 21 21 17 15 15
15 16 18 19 20 21 21 21 16 5 4 2 3 1 6 4 6 13 11 8 11 13 12 3 11 0 2 1 5 3 4 3 6 8 2 6 4 9 13 12 19 20 16 14 17
16 17 19 20 21 23 22 23 9 1 1 3 1 1 8 7 5 10 12 6 8 9 4 3 6 4 1 4 4 6 3 6 2 6 7 5 2 3 7 14 18 17 17 16 14
18 19 20 20 22 23 23 15 4 3 3 1 2 3 6 4 4 5 12 12 3 6 2 3 3 3 2 4 3 4 4 6 3 3 8 7 5 1 9 3 11 6 14 16 16
20 21 21 21 21 22 24 3 4 3 3 6 4 4 5 8 2 4 10 9 1 3 4 2 4 5 9 6 5 6 6 9 4 1 4 5 3 6 5 8 1 3 9 17 19
22 23 24 21 17 19 8 2 3 3 8 8 6 7 12 3 3 1 10 4 4 5 3 5 4 7 6 7 4 7 10 5 3 8 1 6 7 6 4 4 4 3 5 17 16
22 24 26 18 14 7 6 6 5 13 1 8 5 4 4 7 4 3 6 4 3 4 3 5 5 5 4 3 7 2 5 7 5 7 1 2 4 5 5 8 7 5 5 11 19
23 26 23 12 2 4 7 3 19 4 4 6 3 4 4 5 3 8 8 4 2 7 4 4 4 5 4 5 8 3 3 12 15 13 3 3 3 5 6 7 6 7 4 11 13
26 27 17 7 5 3 4 20 5 4 4 1 2 2 2 5 1 3 5 4 2 2 5 7 2 4 5 9 9 4 7 5 4 5 1 4 1 3 7 7 11 8 7 7 18
28 23 10 4 5 5 14 19 4 5 3 4 1 2 2 1 1 3 2 1 2 3 3 8 4 6 8 1 10 15 8 7 4 4 2 4 5 3 4 7 12 9 8 8 16
25 16 6 4 3 6 18 3 5 4 5 7 3 1 2 3 2 5 3 4 3 2 2 3 2 3 12 15 4 5 3 3 4 1 5 6 6 8 11 11 11 11 10 8 11
21 10 7 11 11 9 8 5 6 3 4 3 3 1 1 0 1 2 3 2 4 3 1 0 1 7 8 8 11 10 6 5 6 4 2 1 6 6 4 14 17 16 17 13 8
18 6 7 4 4 2 5 5 5 3 4 4 4 5 5 4 2 3 2 2 4 7 6 4 4 2 7 5 9 6 4 4 6 2 2 3 6 8 11 14 11 18 20 20 11
13 6 5 4 7 6 5 4 4 6 4 4 3 1 2 5 3 4 3 4 4 3 3 2 0 1 3 5 5 6 8 3 2 4 4 4 5 6 3 6 7 13 21 22 15
4 3 1 4 6 5 2 5 6 7 1 4 2 3 2 1 2 2 2 4 3 7 4 1 2 5 1 1 8 2 2 5 4 4 4 2 5 5 4 10 15 14 16 20 17
5 2 5 14 3 1 2 5 5 4 3 3 3 2 1 2 2 4 3 3 6 2 4 4 3 0 2 6 1 4 2 3 5 3 1 2 4 13 2 8 10 12 14 18 17
2 3 6 4 1 2 5 6 6 3 1 1 4 2 3 2 2 2 3 6 6 5 3 2 3 3 8 7 7 7 5 3 5 3 0 2 4 16 12 7 3 10 9 11 16
1 3 4 3 1 3 2 7 3 1 3 5 2 3 5 8 6 2 5 4 6 2 6 7 3 4 4 5 3 6 6 5 4 4 2 3 8 15 15 9 8 5 6 9 10
1 3 3 3 3 4 3 4 3 3 3 3 5 5 4 3 5 4 4 7 5 9 5 5 4 1 1 6 10 6 4 8 6 2 3 2 3 7 10 8 7 6 2 8 12
1 1 4 2 3 5 3 2 5 3 4 1 7 4 7 4 3 2 3 2 1 5 4 4 2 1 3 5 11 9 7 6 5 5 3 4 3 7 7 6 8 10 10 5 10
3 2 3 3 2 1 3 5 5 4 4 6 10 6 4 3 6 3 3 2 1 2 2 3 3 3 2 1 4 5 5 3 3 2 2 4 1 6 10 10 12 9 12 10 7
Wind_Direction
4 1 360 358 355 351 346 342 338 331 327 324 322 323 323 318 310 278 243 223 193 161 144 102 176 170 153 126 186 46 113 174 226 304 175 199 161 147 93 135 128 213 129 141 144
11 9 9 3 358 355 351 345 339 334 329 328 327 329 336 330 319 260 238 206 169 177 225 176 154 153 134 201 198 172 150 201 162 118 117 283 212 116 129 151 112 94 114 138 147
13 15 12 7 4 359 355 351 343 336 331 329 331 334 347 338 306 248 14 213 189 178 197 146 63 160 163 216 206 185 220 149 173 167 195 193 100 140 148 157 152 143 145 145 156
9 11 9 5 4 1 357 351 347 340 337 332 339 343 346 347 133 284 326 217 190 172 170 137 132 136 187 207 228 179 254 159 161 189 198 183 25 108 120 179 151 151 151 154 161
1 4 2 359 359 359 357 352 347 336 333 344 355 358 28 323 253 336 334 158 163 179 190 148 124 149 221 233 164 165 130 48 35 174 137 124 67 60 205 142 142 146 157 166 159
353 355 354 352 351 352 352 350 343 336 331 343 9 37 4 321 316 295 85 157 165 179 182 154 165 215 298 277 183 83 87 82 41 68 143 109 88 353 207 201 153 158 169 168 160
348 345 345 345 344 344 345 342 335 327 329 339 63 62 37 232 88 135 155 180 191 198 130 190 164 56 329 358 157 147 103 71 33 24 95 123 92 216 290 253 169 168 172 170 162
345 342 341 340 337 337 336 334 331 305 325 32 105 100 250 198 271 249 221 245 220 210 212 111 199 177 219 33 22 34 79 104 22 1 9 333 166 227 262 184 179 176 170 173 169
345 342 339 336 332 331 332 330 332 265 29 105 97 84 278 294 233 231 216 188 185 196 214 277 155 179 331 100 40 7 118 103 127 41 27 359 122 20 306 189 185 177 168 178 164
346 342 338 334 330 326 332 337 26 101 102 48 247 331 286 311 249 208 191 170 142 137 163 163 76 104 47 83 211 168 133 94 118 322 40 334 126 50 17 339 196 174 161 167 164
344 341 337 330 327 324 333 355 4 7 158 227 228 246 272 305 308 180 169 165 85 79 135 184 100 176 202 173 174 140 130 115 100 214 86 301 279 293 65 291 184 2 179 164 170
343 339 334 327 323 319 337 89 198 102 309 236 245 266 269 242 309 153 148 120 130 209 121 27 219 219 156 186 145 151 123 82 98 159 163 210 271 290 276 267 287 278 194 170 158
341 337 333 325 319 319 311 288 346 321 129 299 193 213 226 152 215 267 134 159 157 148 174 164 233 146 183 158 122 115 167 169 171 181 306 119 262 199 237 218 237 247 255 180 163
339 336 334 329 334 320 281 342 329 184 55 284 292 259 177 154 288 226 163 144 46 194 179 228 235 191 200 205 118 224 217 169 159 151 216 195 277 191 185 227 213 220 216 175 177
339 334 335 324 290 241 324 329 354 118 42 268 261 174 63 136 298 331 134 55 226 210 90 249 259 170 190 211 149 168 101 152 152 104 130 171 285 253 146 228 233 225 196 192 170
336 331 331 327 267 281 333 331 118 39 11 338 164 242 37 323 254 95 136 69 185 233 191 234 221 170 211 132 151 124 98 89 82 91 358 181 184 259 197 209 207 212 193 191 168
338 326 296 245 264 319 337 25 44 91 324 321 250 30 159 275 17 140 170 200 167 27 339 314 237 102 105 93 47 91 107 51 42 14 227 196 176 230 197 182 174 197 205 177 185
338 323 295 272 275 291 344 47 59 252 292 293 10 356 43 108 32 224 105 329 242 162 212 159 20 182 169 171 172 165 184 146 167 212 185 40 230 249 235 197 180 186 197 171 186
337 314 283 290 263 210 67 54 212 254 249 343 19 29 334 342 78 59 63 243 244 195 180 145 278 290 180 151 141 213 209 168 106 8 76 220 280 288 186 185 205 207 183 167 179
336 326 274 278 140 87 68 240 242 207 308 54 43 77 319 340 58 59 50 277 328 57 147 313 253 262 238 104 287 159 161 86 352 141 233 270 280 244 163 201 199 185 180 165 168
354 30 305 174 134 50 144 233 276 265 248 85 9 40 352 108 32 105 190 278 10 352 78 140 88 290 72 156 190 121 250 55 110 126 156 256 261 251 210 170 177 186 181 170 166
3 24 64 144 59 42 192 196 244 305 43 46 110 114 125 4 17 44 355 228 319 52 5 343 117 330 184 302 120 126 98 149 123 218 177 204 275 341 261 166 165 172 178 176 178
18 259 194 249 164 287 294 279 216 219 0 84 19 39 50 51 90 357 347 319 33 45 339 323 26 356 358 349 355 52 345 50 94 79 158 156 289 360 14 48 124 160 174 190 181
21 360 320 53 108 144 347 272 232 125 89 82 46 77 59 28 10 75 3 350 350 52 21 85 41 121 171 235 205 62 354 19 107 82 200 267 338 349 359 17 18 59 156 173 194
55 260 199 301 320 330 160 269 219 127 53 59 24 77 115 67 20 13 355 349 345 358 34 83 87 53 134 91 82 89 65 33 63 58 94 322 61 340 339 337 359 314 275 190 182
138 19 354 297 301 344 331 314 199 150 132 89 123 123 105 119 147 285 5 1 272 337 45 5 143 110 50 39 91 71 20 62 53 26 80 104 29 352 306 332 23 25 21 40 166
340 329 114 264 304 61 257 265 239 126 8 157 152 114 98 168 187 192 184 86 123 150 84 70 109 79 214 224 243 28 347 41 96 14 267 70 254 356 30 32 32 38 52 50 51